Location: Crescent
(42.8242°N, 73.7329°W)
Time: 12:49:04
(UTC+00:00)

Transit 4A - Pass Details

Date: 24 February 2026
Orbit: 863 x 978 km, 66.8° (Epoch: 17 March)

Event Time Altitude Azimuth Distance (km) Brightness Sun altitude
Rises 13:39:09 0° 335° (NNW) 3,593 10.5 19.5°
Reaches altitude 10° 13:43:03 10° 360° (N) 2,672 10.0 20.0°
Maximum altitude 13:46:22 15° 32° (NNE) 2,370 10.1 20.5°
Drops below altitude 10° 13:49:42 10° 64° (ENE) 2,702 10.8 21.0°
Sets 13:53:40 0° 88° (E) 3,662 11.8 21.6°
